This is the latest recevied weather packets stored in our database for station/object K3SV. If no packets are shown the sender has not sent any weather packets the latest 10 day(s).
| Time | Temp. | Humidity | Pressure | Rain* | Wind** | Luminosity | Snow |
|---|---|---|---|---|---|---|---|
| 1778068555 | 19.44° C | 93% | 1016.5 hPa | 0 mm | - | 83 W/m² | - |
| 1778068254 | 18.33° C | 93% | 1016.2 hPa | 0 mm | - | 66 W/m² | - |
| 1778067951 | 18.33° C | 94% | 1016.4 hPa | 0 mm | - | 50 W/m² | - |
| 1778067649 | 17.78° C | 94% | 1016.3 hPa | 0 mm | - | 42 W/m² | - |
| 1778067346 | 17.78° C | 94% | 1016.2 hPa | 0 mm | - | 33 W/m² | - |
| 1778067044 | 17.78° C | 94% | 1016.3 hPa | 0 mm | - | 26 W/m² | - |
| 1778066740 | 17.22° C | 95% | 1016.4 hPa | 0 mm | - | 21 W/m² | - |
| 1778066437 | 17.22° C | 95% | 1016.3 hPa | 0 mm | - | 16 W/m² | - |
| 1778066135 | 17.22° C | 94% | 1016.3 hPa | 0 mm | - | 14 W/m² | - |
| 1778065832 | 17.22° C | 94% | 1016.3 hPa | 0 mm | - | 12 W/m² | - |
| 1778065530 | 17.22° C | 94% | 1016.1 hPa | 0 mm | - | 10 W/m² | - |
| 1778065227 | 17.22° C | 94% | 1016.1 hPa | 0 mm | - | 8 W/m² | - |
| 1778064923 | 17.22° C | 94% | 1015.9 hPa | 0 mm | - | 6 W/m² | - |
| 1778064620 | 17.22° C | 94% | 1015.8 hPa | 0 mm | - | 3 W/m² | - |
| 1778064319 | 17.22° C | 94% | 1015.9 hPa | 0 mm | - | 2 W/m² | - |
| 1778064016 | 17.22° C | 93% | 1016 hPa | 0 mm | - | 1 W/m² | - |
| 1778063713 | 17.22° C | 93% | 1015.9 hPa | 0 mm | - | 0 W/m² | - |
| 1778063410 | 17.78° C | 93% | 1015.8 hPa | 0 mm | - | 0 W/m² | - |
| 1778063108 | 17.78° C | 93% | 1015.7 hPa | 0 mm | - | 0 W/m² | - |
| 1778062805 | 17.78° C | 92% | 1015.6 hPa | 0 mm | - | 0 W/m² | - |
| 1778062501 | 17.78° C | 93% | 1015.5 hPa | 0 mm | - | 0 W/m² | - |
| 1778062199 | 17.78° C | 93% | 1015.5 hPa | 0 mm | - | 0 W/m² | - |
| 1778061897 | 17.78° C | 93% | 1015.6 hPa | 0 mm | - | 0 W/m² | - |
| 1778061595 | 17.78° C | 92% | 1015.6 hPa | 0 mm | - | 0 W/m² | - |
| 1778061293 | 17.78° C | 93% | 1015.6 hPa | 0 mm | - | 0 W/m² | - |
* Rain latest hour (hover to see other rain measurements)
** Current wind speed in m/s (hover to see current wind gust speed)